TimeMST,TemperatureF,Dew PointF,Humidity,Sea Level PressureIn,VisibilityMPH,Wind Direction,Wind SpeedMPH,Gust SpeedMPH,PrecipitationIn,Events,Conditions,WindDirDegrees,DateUTC
12:51 AM,79.0,44.1,29,29.90,10.0,East,4.6,-,N/A,,Clear,90,2012-10-05 07:51:00
1:51 AM,77.0,42.1,29,29.90,10.0,ESE,6.9,-,N/A,,Partly Cloudy,110,2012-10-05 08:51:00
2:51 AM,73.9,46.0,37,29.89,10.0,East,6.9,-,N/A,,Partly Cloudy,80,2012-10-05 09:51:00
3:51 AM,73.9,44.1,34,29.90,10.0,ENE,5.8,-,N/A,,Clear,70,2012-10-05 10:51:00
4:51 AM,72.0,45.0,38,29.91,10.0,ESE,6.9,-,N/A,,Clear,110,2012-10-05 11:51:00
5:51 AM,71.1,44.1,38,29.93,10.0,East,6.9,-,N/A,,Clear,90,2012-10-05 12:51:00
6:51 AM,70.0,42.1,36,29.94,10.0,East,9.2,-,N/A,,Partly Cloudy,80,2012-10-05 13:51:00
7:51 AM,75.0,44.1,33,29.95,10.0,ESE,9.2,-,N/A,,Partly Cloudy,110,2012-10-05 14:51:00
8:51 AM,80.1,43.0,27,29.96,10.0,ESE,10.4,-,N/A,,Partly Cloudy,110,2012-10-05 15:51:00
9:51 AM,82.9,42.1,24,29.96,10.0,SSE,5.8,-,N/A,,Scattered Clouds,150,2012-10-05 16:51:00
10:51 AM,86.0,43.0,22,29.95,10.0,Variable,3.5,-,N/A,,Scattered Clouds,0,2012-10-05 17:51:00
11:51 AM,89.1,41.0,19,29.92,10.0,East,4.6,-,N/A,,Scattered Clouds,90,2012-10-05 18:51:00
12:51 PM,91.0,37.0,15,29.90,10.0,Calm,Calm,-,N/A,,Mostly Cloudy,0,2012-10-05 19:51:00
1:51 PM,93.9,36.0,13,29.86,10.0,Variable,3.5,-,N/A,,Partly Cloudy,0,2012-10-05 20:51:00
2:51 PM,93.0,35.1,13,29.83,10.0,SW,3.5,-,N/A,,Scattered Clouds,220,2012-10-05 21:51:00
3:51 PM,95.0,35.1,12,29.82,10.0,ESE,5.8,-,N/A,,Scattered Clouds,120,2012-10-05 22:51:00
4:51 PM,93.9,35.1,13,29.81,10.0,SW,3.5,-,N/A,,Scattered Clouds,220,2012-10-05 23:51:00
5:51 PM,91.9,33.1,12,29.80,10.0,North,9.2,-,N/A,,Scattered Clouds,360,2012-10-06 00:51:00
6:51 PM,91.0,30.9,12,29.81,10.0,NNW,5.8,-,N/A,,Scattered Clouds,340,2012-10-06 01:51:00
7:51 PM,90.0,32.0,13,29.82,10.0,North,3.5,-,N/A,,Partly Cloudy,10,2012-10-06 02:51:00
8:51 PM,84.2,35.6,18,29.87,10.0,Calm,Calm,-,N/A,,Partly Cloudy,0,2012-10-06 03:51:00
9:51 PM,84.0,39.0,20,29.82,10.0,Calm,Calm,-,N/A,,Scattered Clouds,0,2012-10-06 04:51:00
10:51 PM,82.0,39.9,22,29.82,10.0,East,3.5,-,N/A,,Scattered Clouds,90,2012-10-06 05:51:00
11:51 PM,80.1,39.9,24,29.82,10.0,ESE,4.6,-,N/A,,Scattered Clouds,110,2012-10-06 06:51:00